SCF1534 ZBAD-ZUCK

Flight info

Callsign SCF1534
Flight time 2h 23m
Altitude 30100
Route PEGSO7F PEGSO B215 GODON W43 SAVPA W276 AVDIG W666 VINEX VINEX2H
Aircraft A320/M-SDE3FGHIRWY/LB1

Departure

Time 2026-04-22 10:53
Airport Beijing Daxing International Airport (ZBAD)

Arrival

Time 2026-04-22 13:16
Airport Chongqing Jiangbei International Airport (ZUCK)
Time Latitude Longitude Altitude Speed Heading
2026-04-22 10:20 39.51609 116.40132 85 ft 0 kts 82°
2026-04-22 10:37 39.51608 116.40122 89 ft 2 kts 82°
2026-04-22 10:37 39.51606 116.40101 85 ft 2 kts 63°
2026-04-22 10:38 39.51595 116.40086 90 ft 1 kts 357°
2026-04-22 10:48 39.51604 116.40085 86 ft 6 kts 353°
2026-04-22 10:48 39.51678 116.40061 86 ft 12 kts 352°
2026-04-22 10:48 39.51729 116.40009 89 ft 9 kts 272°
2026-04-22 10:49 39.51722 116.39936 89 ft 9 kts 262°
2026-04-22 10:49 39.51756 116.39846 88 ft 13 kts 338°
2026-04-22 10:49 39.51795 116.39761 91 ft 13 kts 264°
2026-04-22 10:49 39.51781 116.39624 98 ft 16 kts 263°
2026-04-22 10:50 39.51766 116.39463 90 ft 21 kts 263°
2026-04-22 10:50 39.51746 116.39253 85 ft 25 kts 263°
2026-04-22 10:50 39.51724 116.39031 90 ft 25 kts 263°
2026-04-22 10:50 39.51704 116.38816 93 ft 21 kts 263°
2026-04-22 10:51 39.51648 116.38745 96 ft 12 kts 166°
2026-04-22 10:51 39.51589 116.38757 96 ft 0 kts 173°
2026-04-22 10:51 39.51576 116.38759 96 ft 10 kts 173°
2026-04-22 10:52 39.51294 116.38804 97 ft 76 kts 173°
2026-04-22 10:52 39.50566 116.38917 96 ft 133 kts 173°
2026-04-22 10:52 39.49495 116.39083 130 ft 173 kts 173°
2026-04-22 10:52 39.48265 116.39265 630 ft 183 kts 175°
2026-04-22 10:53 39.46971 116.39449 1245 ft 190 kts 173°
2026-04-22 10:53 39.45647 116.39649 1717 ft 201 kts 173°
2026-04-22 10:53 39.44164 116.39879 1939 ft 230 kts 173°
2026-04-22 10:53 39.42500 116.40133 2423 ft 248 kts 173°
2026-04-22 10:54 39.40769 116.40387 3245 ft 253 kts 173°
2026-04-22 10:54 39.39005 116.40658 4092 ft 257 kts 173°
2026-04-22 10:54 39.37218 116.40942 4943 ft 261 kts 173°
2026-04-22 10:54 39.35405 116.41120 5790 ft 264 kts 185°
2026-04-22 10:55 39.33665 116.40314 6466 ft 273 kts 217°
2026-04-22 10:55 39.32444 116.38425 7168 ft 279 kts 242°
2026-04-22 10:55 39.31509 116.36211 7722 ft 283 kts 243°
2026-04-22 10:55 39.30570 116.33976 7869 ft 282 kts 243°
2026-04-22 10:56 39.29630 116.31745 7892 ft 284 kts 243°
2026-04-22 10:56 39.28686 116.29509 7898 ft 284 kts 243°
2026-04-22 10:56 39.27739 116.27275 7899 ft 284 kts 243°
2026-04-22 10:56 39.26790 116.25047 7893 ft 283 kts 243°
2026-04-22 10:57 39.25838 116.22822 7902 ft 283 kts 243°
2026-04-22 10:57 39.24886 116.20607 7900 ft 283 kts 242°
2026-04-22 10:57 39.23932 116.18388 7901 ft 283 kts 242°
2026-04-22 10:57 39.22980 116.16172 7897 ft 283 kts 242°
2026-04-22 10:58 39.22027 116.13954 7896 ft 283 kts 242°
2026-04-22 10:58 39.21076 116.11740 7894 ft 283 kts 242°
2026-04-22 10:58 39.20123 116.09522 7920 ft 285 kts 243°
2026-04-22 10:58 39.19154 116.07267 8640 ft 287 kts 242°
2026-04-22 10:59 39.18185 116.05016 9509 ft 289 kts 243°
2026-04-22 10:59 39.17204 116.02740 10246 ft 293 kts 243°
2026-04-22 10:59 39.16178 116.00352 10492 ft 316 kts 244°
2026-04-22 10:59 39.15076 115.97782 10656 ft 339 kts 243°
2026-04-22 11:00 39.13894 115.95039 10806 ft 361 kts 243°
2026-04-22 11:00 39.12658 115.92179 10989 ft 368 kts 243°
2026-04-22 11:00 39.11407 115.89304 11021 ft 369 kts 243°
2026-04-22 11:00 39.10153 115.86425 11022 ft 368 kts 243°
2026-04-22 11:01 39.08903 115.83552 11022 ft 368 kts 243°
2026-04-22 11:01 39.07651 115.80672 11019 ft 368 kts 243°
2026-04-22 11:01 39.06414 115.77833 11019 ft 368 kts 243°
2026-04-22 11:01 39.05144 115.74920 11016 ft 368 kts 243°
2026-04-22 11:02 39.03909 115.72086 11017 ft 369 kts 243°
2026-04-22 11:02 39.02651 115.69209 11016 ft 370 kts 242°
2026-04-22 11:02 39.01389 115.66322 11017 ft 370 kts 242°
2026-04-22 11:02 39.00127 115.63437 11014 ft 369 kts 242°
2026-04-22 11:03 38.98873 115.60570 11015 ft 367 kts 242°
2026-04-22 11:03 38.97623 115.57716 11015 ft 367 kts 242°
2026-04-22 11:03 38.96372 115.54864 11018 ft 366 kts 242°
2026-04-22 11:03 38.95120 115.52012 11018 ft 366 kts 242°
2026-04-22 11:04 38.93968 115.49103 11016 ft 366 kts 248°
2026-04-22 11:04 38.92933 115.46116 11017 ft 366 kts 247°
2026-04-22 11:04 38.91894 115.43134 11016 ft 366 kts 247°
2026-04-22 11:04 38.90852 115.40157 11017 ft 366 kts 247°
2026-04-22 11:05 38.89806 115.37177 11018 ft 368 kts 247°
2026-04-22 11:05 38.88751 115.34180 11019 ft 369 kts 247°
2026-04-22 11:05 38.87687 115.31155 11264 ft 374 kts 247°
2026-04-22 11:05 38.86623 115.28126 12117 ft 372 kts 248°
2026-04-22 11:06 38.85561 115.25104 12873 ft 372 kts 248°
2026-04-22 11:06 38.84493 115.22072 13583 ft 374 kts 248°
2026-04-22 11:06 38.83417 115.19022 14208 ft 376 kts 248°
2026-04-22 11:06 38.82335 115.15958 14797 ft 378 kts 248°
2026-04-22 11:07 38.81246 115.12878 15366 ft 381 kts 248°
2026-04-22 11:07 38.80146 115.09773 15905 ft 383 kts 248°
2026-04-22 11:07 38.79040 115.06654 16468 ft 386 kts 248°
2026-04-22 11:07 38.77925 115.03512 17002 ft 388 kts 249°
2026-04-22 11:08 38.76804 115.00348 17506 ft 392 kts 248°
2026-04-22 11:08 38.75671 114.97160 18038 ft 394 kts 248°
2026-04-22 11:08 38.74531 114.93954 18534 ft 396 kts 248°
2026-04-22 11:08 38.73385 114.90736 18985 ft 398 kts 248°
2026-04-22 11:09 38.72232 114.87500 19448 ft 400 kts 248°
2026-04-22 11:09 38.71078 114.84258 19910 ft 401 kts 248°
2026-04-22 11:09 38.69915 114.80998 20365 ft 403 kts 248°
2026-04-22 11:09 38.68765 114.77772 20816 ft 404 kts 248°
2026-04-22 11:10 38.67592 114.74493 21264 ft 406 kts 248°
2026-04-22 11:10 38.66398 114.71161 21705 ft 407 kts 248°
2026-04-22 11:10 38.65230 114.67904 22129 ft 409 kts 247°
2026-04-22 11:10 38.64043 114.64591 22513 ft 411 kts 247°
2026-04-22 11:11 38.62848 114.61255 22889 ft 413 kts 247°
2026-04-22 11:11 38.61646 114.57908 23299 ft 415 kts 247°
2026-04-22 11:11 38.60428 114.54548 23657 ft 417 kts 246°
2026-04-22 11:11 38.59203 114.51190 24027 ft 417 kts 246°
2026-04-22 11:12 38.57977 114.47823 24402 ft 418 kts 246°
2026-04-22 11:12 38.56756 114.44458 24770 ft 418 kts 246°
2026-04-22 11:12 38.55537 114.41094 25141 ft 417 kts 246°
2026-04-22 11:12 38.54318 114.37726 25521 ft 417 kts 246°
2026-04-22 11:13 38.53101 114.34368 25879 ft 416 kts 246°
2026-04-22 11:13 38.51883 114.31017 26224 ft 416 kts 246°
2026-04-22 11:13 38.50663 114.27660 26565 ft 416 kts 246°
2026-04-22 11:13 38.49445 114.24311 26904 ft 416 kts 246°
2026-04-22 11:14 38.48222 114.20960 27220 ft 416 kts 246°
2026-04-22 11:14 38.46999 114.17620 27599 ft 415 kts 246°
2026-04-22 11:14 38.45782 114.14299 28098 ft 411 kts 246°
2026-04-22 11:14 38.44579 114.11013 28599 ft 407 kts 246°
2026-04-22 11:15 38.43388 114.07759 29145 ft 403 kts 245°
2026-04-22 11:15 38.42208 114.04542 29651 ft 399 kts 246°
2026-04-22 11:15 38.41034 114.01350 29934 ft 396 kts 246°
2026-04-22 11:16 38.38713 113.95016 29970 ft 393 kts 246°
2026-04-22 11:16 38.36391 113.88690 29972 ft 395 kts 245°
2026-04-22 11:17 38.34053 113.82367 29976 ft 394 kts 245°
2026-04-22 11:17 38.31694 113.76057 29984 ft 394 kts 244°
2026-04-22 11:18 38.29308 113.69740 30083 ft 398 kts 245°
2026-04-22 11:18 38.26902 113.63380 30080 ft 399 kts 246°
2026-04-22 11:19 38.24513 113.57065 30057 ft 399 kts 244°
2026-04-22 11:19 38.22101 113.50706 30083 ft 399 kts 244°
2026-04-22 11:20 38.19685 113.44356 30077 ft 399 kts 244°
2026-04-22 11:20 38.17260 113.38008 30079 ft 400 kts 245°
2026-04-22 11:21 38.14843 113.31634 30071 ft 401 kts 246°
2026-04-22 11:21 38.12466 113.25230 30068 ft 401 kts 246°
2026-04-22 11:22 38.10089 113.18823 30041 ft 401 kts 245°
2026-04-22 11:22 38.07701 113.12427 30054 ft 402 kts 245°
2026-04-22 11:23 38.05298 113.06027 30060 ft 402 kts 245°
2026-04-22 11:23 38.02886 112.99623 30060 ft 403 kts 245°
2026-04-22 11:24 38.00476 112.93213 30050 ft 403 kts 245°
2026-04-22 11:24 37.98053 112.86792 30050 ft 404 kts 245°
2026-04-22 11:25 37.95628 112.80375 30023 ft 404 kts 244°
2026-04-22 11:25 37.93196 112.73955 30041 ft 404 kts 244°
2026-04-22 11:26 37.90762 112.67548 30038 ft 403 kts 244°
2026-04-22 11:26 37.88321 112.61155 30035 ft 403 kts 244°
2026-04-22 11:27 37.85816 112.54804 30035 ft 404 kts 243°
2026-04-22 11:27 37.83148 112.48560 30054 ft 404 kts 242°
2026-04-22 11:28 37.80456 112.42324 30049 ft 404 kts 242°
2026-04-22 11:28 37.77788 112.36074 30048 ft 404 kts 242°
2026-04-22 11:29 37.75252 112.29795 30063 ft 404 kts 244°
2026-04-22 11:29 37.72858 112.23381 30060 ft 404 kts 245°
2026-04-22 11:30 37.70455 112.16960 30057 ft 404 kts 244°
2026-04-22 11:30 37.68018 112.10574 30076 ft 403 kts 244°
2026-04-22 11:31 37.65564 112.04217 30058 ft 403 kts 244°
2026-04-22 11:31 37.63501 111.98887 30053 ft 403 kts 244°
2026-04-22 11:32 37.61041 111.92532 30060 ft 404 kts 244°
2026-04-22 11:32 37.58577 111.86157 30062 ft 405 kts 244°
2026-04-22 11:33 37.56121 111.79828 30089 ft 405 kts 244°
2026-04-22 11:34 37.50903 111.66574 30086 ft 400 kts 239°
2026-04-22 11:34 37.47806 111.60756 30077 ft 400 kts 237°
2026-04-22 11:35 37.44695 111.54950 30070 ft 401 kts 237°
2026-04-22 11:35 37.41578 111.49131 30071 ft 401 kts 237°
2026-04-22 11:36 37.38446 111.43326 30065 ft 401 kts 237°
2026-04-22 11:36 37.35301 111.37511 30057 ft 404 kts 237°
2026-04-22 11:37 37.32130 111.31646 30063 ft 406 kts 237°
2026-04-22 11:37 37.28951 111.25773 30064 ft 407 kts 237°
2026-04-22 11:38 37.25770 111.19906 30073 ft 406 kts 237°
2026-04-22 11:38 37.20998 111.11130 30106 ft 405 kts 237°
2026-04-22 11:39 37.17823 111.05299 30059 ft 405 kts 237°
2026-04-22 11:39 37.14663 110.99510 30068 ft 405 kts 237°
2026-04-22 11:40 37.11483 110.93678 30059 ft 405 kts 237°
2026-04-22 11:40 37.08295 110.87852 30079 ft 406 kts 236°
2026-04-22 11:41 37.05096 110.82038 30081 ft 405 kts 236°
2026-04-22 11:41 37.01901 110.76234 30095 ft 404 kts 236°
2026-04-22 11:42 36.98724 110.70440 30097 ft 404 kts 237°
2026-04-22 11:42 36.95604 110.64608 30099 ft 403 kts 237°
2026-04-22 11:43 36.92519 110.58785 30089 ft 402 kts 237°
2026-04-22 11:43 36.89421 110.52974 30078 ft 402 kts 237°
2026-04-22 11:44 36.86313 110.47182 30092 ft 402 kts 237°
2026-04-22 11:44 36.83199 110.41396 30088 ft 401 kts 237°
2026-04-22 11:45 36.80092 110.35626 30069 ft 400 kts 237°
2026-04-22 11:45 36.76989 110.29862 30085 ft 400 kts 237°
2026-04-22 11:46 36.73904 110.24137 30086 ft 400 kts 237°
2026-04-22 11:46 36.70794 110.18389 30088 ft 400 kts 237°
2026-04-22 11:47 36.67683 110.12652 30061 ft 399 kts 237°
2026-04-22 11:47 36.64569 110.06918 30083 ft 400 kts 237°
2026-04-22 11:48 36.61454 110.01187 30083 ft 399 kts 237°
2026-04-22 11:48 36.58342 109.95477 30088 ft 399 kts 237°
2026-04-22 11:49 36.55226 109.89769 30094 ft 399 kts 237°
2026-04-22 11:49 36.52109 109.84063 30091 ft 399 kts 237°
2026-04-22 11:50 36.48989 109.78366 30088 ft 399 kts 237°
2026-04-22 11:50 36.46398 109.73628 30083 ft 399 kts 237°
2026-04-22 11:51 36.43279 109.67938 30098 ft 398 kts 237°
2026-04-22 11:51 36.40152 109.62262 30091 ft 398 kts 237°
2026-04-22 11:52 36.37020 109.56585 30085 ft 398 kts 237°
2026-04-22 11:52 36.33892 109.50910 30088 ft 398 kts 237°
2026-04-22 11:53 36.30755 109.45240 30108 ft 400 kts 238°
2026-04-22 11:53 36.27131 109.40000 30107 ft 406 kts 223°
2026-04-22 11:54 36.22211 109.36426 30099 ft 414 kts 211°
2026-04-22 11:54 36.17018 109.33323 30101 ft 415 kts 211°
2026-04-22 11:55 36.11826 109.30209 30058 ft 415 kts 211°
2026-04-22 11:55 36.06642 109.27118 30116 ft 413 kts 211°
2026-04-22 11:56 36.01464 109.24036 30122 ft 412 kts 211°
2026-04-22 11:56 35.96305 109.20961 30121 ft 412 kts 211°
2026-04-22 11:57 35.91150 109.17887 30123 ft 411 kts 211°
2026-04-22 11:57 35.86029 109.14834 30091 ft 412 kts 210°
2026-04-22 11:58 35.80670 109.12225 30097 ft 416 kts 205°
2026-04-22 11:58 35.75212 109.09796 30113 ft 417 kts 206°
2026-04-22 11:59 35.69750 109.07370 30106 ft 418 kts 206°
2026-04-22 11:59 35.64262 109.04934 30118 ft 421 kts 205°
2026-04-22 12:00 35.58749 109.02487 30129 ft 421 kts 205°
2026-04-22 12:00 35.53242 109.00042 30132 ft 421 kts 205°
2026-04-22 12:01 35.47733 108.97606 30133 ft 421 kts 205°
2026-04-22 12:01 35.42222 108.95169 30104 ft 422 kts 205°
2026-04-22 12:02 35.36688 108.92730 30113 ft 423 kts 205°
2026-04-22 12:02 35.31132 108.90290 30118 ft 424 kts 205°
2026-04-22 12:03 35.25579 108.87848 30126 ft 425 kts 205°
2026-04-22 12:03 35.20044 108.85419 30109 ft 425 kts 205°
2026-04-22 12:04 35.14425 108.82963 30119 ft 427 kts 205°
2026-04-22 12:04 35.08870 108.80534 30127 ft 427 kts 206°
2026-04-22 12:05 35.03275 108.78081 30130 ft 427 kts 206°
2026-04-22 12:05 34.97682 108.75631 30155 ft 427 kts 206°
2026-04-22 12:06 34.92083 108.73192 30147 ft 427 kts 206°
2026-04-22 12:06 34.86493 108.70759 30143 ft 427 kts 206°
2026-04-22 12:07 34.80904 108.68330 30143 ft 426 kts 206°
2026-04-22 12:07 34.75318 108.65903 30117 ft 427 kts 206°
2026-04-22 12:08 34.69708 108.63474 30112 ft 428 kts 206°
2026-04-22 12:08 34.64085 108.61047 30122 ft 429 kts 206°
2026-04-22 12:09 34.58454 108.58614 30119 ft 430 kts 206°
2026-04-22 12:09 34.52821 108.56184 30115 ft 430 kts 207°
2026-04-22 12:10 34.47221 108.53773 30113 ft 430 kts 207°
2026-04-22 12:10 34.41583 108.51348 30116 ft 430 kts 207°
2026-04-22 12:11 34.35944 108.48922 30125 ft 430 kts 207°
2026-04-22 12:11 34.30304 108.46508 30117 ft 429 kts 208°
2026-04-22 12:12 34.24688 108.44104 30142 ft 427 kts 209°
2026-04-22 12:12 34.19088 108.41713 30153 ft 427 kts 208°
2026-04-22 12:13 34.13489 108.39321 30146 ft 427 kts 208°
2026-04-22 12:13 34.07891 108.36923 30122 ft 427 kts 209°
2026-04-22 12:14 34.02308 108.34544 30169 ft 425 kts 209°
2026-04-22 12:14 33.96733 108.32175 30167 ft 423 kts 209°
2026-04-22 12:15 33.91186 108.29821 30174 ft 422 kts 209°
2026-04-22 12:15 33.85644 108.27471 30145 ft 423 kts 209°
2026-04-22 12:16 33.80115 108.25130 30156 ft 420 kts 209°
2026-04-22 12:16 33.74600 108.22799 30164 ft 420 kts 209°
2026-04-22 12:17 33.69083 108.20470 30167 ft 420 kts 209°
2026-04-22 12:17 33.63612 108.18156 30161 ft 420 kts 209°
2026-04-22 12:18 33.58098 108.15827 30132 ft 420 kts 208°
2026-04-22 12:18 33.52584 108.13508 30135 ft 420 kts 208°
2026-04-22 12:19 33.47079 108.11200 30134 ft 419 kts 208°
2026-04-22 12:19 33.41578 108.08884 30139 ft 419 kts 208°
2026-04-22 12:20 33.35994 108.06747 30110 ft 423 kts 205°
2026-04-22 12:20 33.30320 108.04785 30116 ft 425 kts 205°
2026-04-22 12:21 33.24634 108.02821 30109 ft 426 kts 205°
2026-04-22 12:21 33.18951 108.00802 30115 ft 426 kts 205°
2026-04-22 12:22 33.13264 107.98763 30110 ft 428 kts 204°
2026-04-22 12:22 33.07521 107.96713 30116 ft 431 kts 204°
2026-04-22 12:23 33.01767 107.94678 30131 ft 432 kts 204°
2026-04-22 12:23 32.96007 107.92634 30137 ft 432 kts 204°
2026-04-22 12:24 32.90244 107.90591 30114 ft 433 kts 203°
2026-04-22 12:24 32.84452 107.88548 30112 ft 435 kts 202°
2026-04-22 12:25 32.78634 107.86498 30120 ft 437 kts 202°
2026-04-22 12:25 32.72836 107.84449 30124 ft 438 kts 202°
2026-04-22 12:26 32.66997 107.82383 30123 ft 438 kts 202°
2026-04-22 12:26 32.61145 107.80325 30133 ft 439 kts 202°
2026-04-22 12:27 32.55287 107.78272 30140 ft 439 kts 202°
2026-04-22 12:27 32.49431 107.76221 30147 ft 439 kts 202°
2026-04-22 12:28 32.43573 107.74166 30164 ft 439 kts 204°
2026-04-22 12:28 32.37727 107.72110 30121 ft 438 kts 203°
2026-04-22 12:29 32.31885 107.70062 30126 ft 438 kts 203°
2026-04-22 12:29 32.26024 107.68031 30124 ft 439 kts 203°
2026-04-22 12:30 32.17588 107.64209 30128 ft 425 kts 218°
2026-04-22 12:31 32.12861 107.60076 30102 ft 424 kts 222°
2026-04-22 12:31 32.08136 107.55896 30099 ft 426 kts 221°
2026-04-22 12:32 32.03387 107.51706 30105 ft 427 kts 221°
2026-04-22 12:32 31.96253 107.45406 30099 ft 428 kts 221°
2026-04-22 12:33 31.91482 107.41198 30071 ft 429 kts 222°
2026-04-22 12:33 31.86702 107.36989 30086 ft 429 kts 222°
2026-04-22 12:34 31.81952 107.32819 30094 ft 429 kts 221°
2026-04-22 12:34 31.76915 107.29013 30094 ft 437 kts 210°
2026-04-22 12:35 31.71342 107.26131 30096 ft 438 kts 210°
2026-04-22 12:35 31.65752 107.23244 30071 ft 439 kts 209°
2026-04-22 12:36 31.60132 107.20341 30070 ft 441 kts 209°
2026-04-22 12:36 31.54548 107.17462 30071 ft 442 kts 209°
2026-04-22 12:37 31.48908 107.14564 30076 ft 443 kts 209°
2026-04-22 12:37 31.43272 107.11656 30065 ft 443 kts 210°
2026-04-22 12:38 31.37628 107.08754 30077 ft 443 kts 209°
2026-04-22 12:38 31.31976 107.05867 30086 ft 443 kts 209°
2026-04-22 12:39 31.23501 107.01532 30078 ft 443 kts 209°
2026-04-22 12:40 31.17853 106.98648 30066 ft 443 kts 209°
2026-04-22 12:40 31.12201 106.95768 30070 ft 443 kts 209°
2026-04-22 12:41 31.06548 106.92883 30067 ft 443 kts 210°
2026-04-22 12:41 31.01854 106.90483 30077 ft 444 kts 209°
2026-04-22 12:42 30.96192 106.87600 30087 ft 444 kts 209°
2026-04-22 12:42 30.90532 106.84727 30079 ft 443 kts 210°
2026-04-22 12:43 30.84875 106.81865 30092 ft 443 kts 210°
2026-04-22 12:43 30.79227 106.79010 30097 ft 443 kts 210°
2026-04-22 12:44 30.73580 106.76153 30102 ft 442 kts 210°
2026-04-22 12:44 30.67940 106.73300 30078 ft 442 kts 210°
2026-04-22 12:45 30.62297 106.70452 30093 ft 442 kts 210°
2026-04-22 12:45 30.56720 106.67492 30111 ft 439 kts 212°
2026-04-22 12:45 30.53995 106.65909 29518 ft 439 kts 213°
2026-04-22 12:46 30.51260 106.64271 28347 ft 444 kts 213°
2026-04-22 12:46 30.48520 106.62616 27283 ft 446 kts 212°
2026-04-22 12:46 30.45749 106.60955 26156 ft 450 kts 212°
2026-04-22 12:46 30.42947 106.59300 25022 ft 455 kts 211°
2026-04-22 12:47 30.40114 106.57653 24080 ft 455 kts 210°
2026-04-22 12:47 30.37295 106.56034 23295 ft 450 kts 210°
2026-04-22 12:47 30.34497 106.54436 22226 ft 449 kts 209°
2026-04-22 12:47 30.31678 106.52819 21013 ft 455 kts 209°
2026-04-22 12:48 30.28845 106.51186 20049 ft 455 kts 209°
2026-04-22 12:48 30.26017 106.49550 19200 ft 453 kts 209°
2026-04-22 12:48 30.23204 106.47922 18392 ft 452 kts 208°
2026-04-22 12:48 30.20394 106.46299 17520 ft 450 kts 208°
2026-04-22 12:49 30.17641 106.44715 16730 ft 447 kts 208°
2026-04-22 12:49 30.14870 106.43117 15988 ft 443 kts 208°
2026-04-22 12:49 30.12125 106.41534 15267 ft 439 kts 208°
2026-04-22 12:49 30.09402 106.39969 14555 ft 436 kts 208°
2026-04-22 12:50 30.06697 106.38418 13854 ft 432 kts 208°
2026-04-22 12:50 30.04017 106.36882 13158 ft 427 kts 208°
2026-04-22 12:50 30.01408 106.35387 12994 ft 409 kts 208°
2026-04-22 12:50 29.98912 106.33954 12857 ft 392 kts 208°
2026-04-22 12:51 29.96517 106.32578 12727 ft 377 kts 208°
2026-04-22 12:51 29.94216 106.31257 12603 ft 363 kts 208°
2026-04-22 12:51 29.91996 106.29987 12475 ft 350 kts 208°
2026-04-22 12:51 29.89850 106.28762 12351 ft 339 kts 208°
2026-04-22 12:52 29.87772 106.27575 12221 ft 328 kts 208°
2026-04-22 12:52 29.85751 106.26419 12001 ft 322 kts 208°
2026-04-22 12:52 29.83754 106.25275 11704 ft 318 kts 208°
2026-04-22 12:52 29.81801 106.24159 11570 ft 309 kts 208°
2026-04-22 12:53 29.80032 106.22853 11452 ft 297 kts 223°
2026-04-22 12:53 29.78662 106.21129 11192 ft 289 kts 239°
2026-04-22 12:53 29.77652 106.19144 10861 ft 287 kts 244°
2026-04-22 12:53 29.76674 106.17144 10528 ft 287 kts 244°
2026-04-22 12:54 29.75691 106.15150 10201 ft 286 kts 243°
2026-04-22 12:54 29.74583 106.13250 9853 ft 288 kts 231°
2026-04-22 12:54 29.73231 106.11549 9495 ft 288 kts 230°
2026-04-22 12:54 29.71881 106.09859 9161 ft 286 kts 230°
2026-04-22 12:55 29.70540 106.08178 8821 ft 284 kts 230°
2026-04-22 12:55 29.69198 106.06522 8489 ft 283 kts 225°
2026-04-22 12:55 29.67653 106.05147 8226 ft 279 kts 216°
2026-04-22 12:55 29.66074 106.03895 8111 ft 274 kts 216°
2026-04-22 12:56 29.64505 106.02642 8055 ft 274 kts 217°
2026-04-22 12:56 29.62946 106.01394 7997 ft 273 kts 217°
2026-04-22 12:56 29.61343 106.00216 7937 ft 274 kts 208°
2026-04-22 12:56 29.59584 105.99358 7860 ft 276 kts 203°
2026-04-22 12:57 29.57786 105.98526 7802 ft 280 kts 203°
2026-04-22 12:57 29.55980 105.97687 7740 ft 281 kts 203°
2026-04-22 12:57 29.54169 105.96846 7676 ft 280 kts 203°
2026-04-22 12:57 29.52297 105.96219 7614 ft 281 kts 190°
2026-04-22 12:58 29.50363 105.95865 7554 ft 281 kts 189°
2026-04-22 12:58 29.48433 105.95509 7493 ft 281 kts 189°
2026-04-22 12:58 29.46500 105.95147 7427 ft 281 kts 189°
2026-04-22 12:58 29.44570 105.94811 7371 ft 281 kts 184°
2026-04-22 12:59 29.42647 105.94832 7314 ft 280 kts 176°
2026-04-22 12:59 29.40711 105.94968 7247 ft 277 kts 175°
2026-04-22 12:59 29.38793 105.95104 7188 ft 276 kts 176°
2026-04-22 12:59 29.36877 105.95237 7129 ft 275 kts 176°
2026-04-22 13:00 29.34977 105.95471 7069 ft 274 kts 166°
2026-04-22 13:00 29.33138 105.96057 7011 ft 274 kts 162°
2026-04-22 13:00 29.31309 105.96670 6949 ft 274 kts 161°
2026-04-22 13:00 29.29628 105.97634 6897 ft 269 kts 136°
2026-04-22 13:01 29.28501 105.99291 6839 ft 262 kts 110°
2026-04-22 13:01 29.28114 106.01287 6789 ft 256 kts 86°
2026-04-22 13:01 29.28482 106.03252 6734 ft 252 kts 65°
2026-04-22 13:01 29.29167 106.05103 6676 ft 253 kts 65°
2026-04-22 13:02 29.29850 106.06961 6632 ft 253 kts 65°
2026-04-22 13:02 29.30526 106.08821 6577 ft 253 kts 65°
2026-04-22 13:02 29.31203 106.10680 6522 ft 253 kts 65°
2026-04-22 13:02 29.31877 106.12537 6464 ft 252 kts 65°
2026-04-22 13:03 29.32548 106.14392 6407 ft 252 kts 65°
2026-04-22 13:03 29.33222 106.16249 6351 ft 252 kts 65°
2026-04-22 13:03 29.33894 106.18099 6299 ft 252 kts 65°
2026-04-22 13:03 29.34568 106.19949 6242 ft 251 kts 65°
2026-04-22 13:04 29.35239 106.21800 6187 ft 251 kts 65°
2026-04-22 13:04 29.35907 106.23647 6132 ft 251 kts 65°
2026-04-22 13:04 29.36576 106.25497 6071 ft 251 kts 65°
2026-04-22 13:04 29.37246 106.27342 6018 ft 251 kts 65°
2026-04-22 13:05 29.37914 106.29185 5960 ft 251 kts 65°
2026-04-22 13:05 29.38581 106.31030 5901 ft 250 kts 64°
2026-04-22 13:05 29.39244 106.32866 5856 ft 249 kts 65°
2026-04-22 13:05 29.39905 106.34698 5791 ft 249 kts 65°
2026-04-22 13:06 29.40567 106.36534 5742 ft 247 kts 65°
2026-04-22 13:06 29.41202 106.38302 5685 ft 234 kts 66°
2026-04-22 13:06 29.41808 106.39990 5632 ft 223 kts 65°
2026-04-22 13:06 29.42370 106.41599 5589 ft 212 kts 68°
2026-04-22 13:07 29.42849 106.43178 5532 ft 208 kts 69°
2026-04-22 13:07 29.43298 106.44748 5483 ft 207 kts 70°
2026-04-22 13:07 29.43743 106.46317 5437 ft 206 kts 70°
2026-04-22 13:07 29.44185 106.47881 5380 ft 206 kts 70°
2026-04-22 13:08 29.44628 106.49445 5349 ft 206 kts 70°
2026-04-22 13:08 29.45071 106.51005 5303 ft 206 kts 69°
2026-04-22 13:08 29.45515 106.52566 5264 ft 206 kts 70°
2026-04-22 13:08 29.45961 106.54123 5217 ft 205 kts 69°
2026-04-22 13:09 29.46412 106.55673 5147 ft 205 kts 66°
2026-04-22 13:09 29.47133 106.57054 5064 ft 201 kts 45°
2026-04-22 13:09 29.48220 106.58013 5014 ft 191 kts 25°
2026-04-22 13:09 29.49387 106.58488 5008 ft 165 kts 15°
2026-04-22 13:10 29.50407 106.58842 5005 ft 147 kts 15°
2026-04-22 13:10 29.51372 106.59177 5001 ft 144 kts 16°
2026-04-22 13:10 29.52326 106.59507 5001 ft 143 kts 15°
2026-04-22 13:10 29.53282 106.59838 4912 ft 143 kts 16°
2026-04-22 13:11 29.54233 106.60169 4769 ft 143 kts 16°
2026-04-22 13:11 29.55183 106.60498 4592 ft 142 kts 16°
2026-04-22 13:11 29.56129 106.60826 4435 ft 142 kts 16°
2026-04-22 13:11 29.57078 106.61156 4247 ft 142 kts 16°
2026-04-22 13:12 29.58008 106.61479 4066 ft 141 kts 16°
2026-04-22 13:12 29.58948 106.61805 3877 ft 141 kts 16°
2026-04-22 13:12 29.59884 106.62130 3695 ft 140 kts 16°
2026-04-22 13:12 29.60814 106.62453 3513 ft 139 kts 16°
2026-04-22 13:13 29.61740 106.62775 3327 ft 139 kts 16°
2026-04-22 13:13 29.62667 106.63097 3155 ft 139 kts 17°
2026-04-22 13:13 29.63588 106.63417 2958 ft 138 kts 17°
2026-04-22 13:13 29.64505 106.63736 2788 ft 138 kts 16°
2026-04-22 13:14 29.65426 106.64056 2595 ft 138 kts 17°
2026-04-22 13:14 29.66348 106.64377 2427 ft 139 kts 17°
2026-04-22 13:14 29.67270 106.64698 2232 ft 138 kts 17°
2026-04-22 13:14 29.68184 106.65015 2041 ft 138 kts 17°
2026-04-22 13:15 29.69115 106.65339 1806 ft 140 kts 16°
2026-04-22 13:15 29.70038 106.65667 1666 ft 139 kts 15°
2026-04-22 13:15 29.70973 106.65988 1480 ft 140 kts 14°
2026-04-22 13:15 29.71902 106.66307 1357 ft 138 kts 15°
2026-04-22 13:16 29.72744 106.66595 1330 ft 105 kts 17°
2026-04-22 13:16 29.73280 106.66780 1323 ft 56 kts 16°
2026-04-22 13:16 29.73544 106.66864 1319 ft 31 kts
2026-04-22 13:16 29.73730 106.66828 1319 ft 18 kts 336°
2026-04-22 13:17 29.73783 106.66723 1320 ft 16 kts 283°
2026-04-22 13:17 29.73738 106.66631 1322 ft 15 kts 198°
2026-04-22 13:17 29.73648 106.66600 1323 ft 12 kts 197°
2026-04-22 13:17 29.73575 106.66575 1324 ft 10 kts 196°
2026-04-22 13:18 29.73509 106.66554 1324 ft 11 kts 196°
2026-04-22 13:18 29.73417 106.66522 1325 ft 16 kts 197°
2026-04-22 13:18 29.73293 106.66479 1326 ft 21 kts 197°
2026-04-22 13:18 29.73152 106.66430 1327 ft 22 kts 197°
2026-04-22 13:19 29.73004 106.66380 1329 ft 23 kts 196°
2026-04-22 13:19 29.72849 106.66327 1330 ft 24 kts 197°
2026-04-22 13:19 29.72687 106.66270 1331 ft 25 kts 197°
2026-04-22 13:19 29.72517 106.66211 1332 ft 26 kts 197°
2026-04-22 13:20 29.72341 106.66149 1334 ft 27 kts 197°
2026-04-22 13:20 29.72160 106.66086 1335 ft 28 kts 198°
2026-04-22 13:20 29.71973 106.66017 1336 ft 29 kts 197°
2026-04-22 13:20 29.71787 106.65953 1342 ft 22 kts 195°
2026-04-22 13:21 29.71745 106.65939 1342 ft 0 kts 196°
2026-04-22 13:31 29.71746 106.65939 1337 ft 0 kts 196°